Helicity
61 102 63 50 28 67 23 22 38 47 92 106 121 133 114 86 72 118 186 208 199 204 146 101 102 110 103 105 108 79 67 54 50 44 78 91 88 111 107 112 129 131 148 164 129
30 81 65 12 19 -8 5 19 35 59 97 102 106 107 106 133 146 181 216 230 193 165 102 94 110 114 113 115 110 109 83 89 104 103 101 105 117 128 126 121 121 140 155 159 143
23 63 43 -10 4 -13 -11 -5 29 65 94 93 86 85 108 129 164 212 268 268 203 121 91 95 100 114 123 124 129 116 108 99 114 123 128 124 125 141 147 115 118 121 140 133 130
41 65 23 6 -3 -1 -24 4 38 70 86 85 73 74 89 152 184 203 297 256 181 94 89 104 106 115 126 115 117 97 113 114 112 127 124 130 129 136 109 157 165 171 144 120 98
59 14 37 34 34 42 26 41 58 72 67 55 74 95 120 168 192 225 270 201 105 102 128 114 117 99 110 109 104 126 113 127 125 119 114 107 101 121 60 90 108 112 110 99 97
36 41 62 59 49 54 64 81 73 60 55 60 79 79 132 181 178 202 204 151 150 113 119 115 97 91 121 133 142 122 122 130 126 137 122 128 113 142 111 140 139 139 132 129 117
45 61 60 31 41 61 83 72 61 64 74 77 100 84 165 145 140 151 125 123 121 80 86 89 57 81 71 103 82 99 92 87 137 123 113 91 71 98 94 118 120 106 114 124 111
87 90 76 51 47 38 47 49 47 51 58 63 55 74 143 131 114 124 113 79 89 76 75 73 91 97 103 70 85 87 79 94 99 116 105 110 85 110 123 108 107 105 98 88 89
58 75 93 94 64 51 41 49 55 49 58 72 85 81 130 97 101 127 103 95 88 84 96 74 69 83 71 79 79 103 106 102 82 95 93 92 100 113 97 80 92 87 79 77 75
34 50 60 69 80 75 124 104 85 53 86 77 72 89 102 118 115 108 83 87 72 58 58 80 77 87 99 105 117 103 93 75 70 109 85 74 68 62 59 67 83 83 86 95 101
25 19 36 53 22 21 96 84 95 126 184 148 135 112 112 116 93 106 85 64 60 69 84 84 101 127 104 114 110 98 88 83 78 106 83 60 66 66 52 70 75 84 84 94 104
42 27 17 21 6 40 16 52 68 60 114 158 122 107 117 106 73 156 113 47 73 80 78 88 111 87 84 92 96 98 95 96 51 84 66 67 74 67 23 -11 44 85 109 132 127
55 44 55 53 72 103 67 78 72 44 79 149 132 129 127 122 88 161 118 79 101 113 122 99 102 71 72 94 99 94 103 121 99 63 39 23 38 38 -10 -16 16 48 59 60 76
30 45 30 82 65 80 68 100 91 42 84 146 137 92 106 76 86 105 94 75 85 85 98 106 83 84 88 102 91 102 70 28 8 24 43 83 45 55 63 37 21 32 24 38 82
14 29 15 22 35 30 38 44 33 33 39 82 74 57 67 66 78 91 58 61 93 84 72 95 77 67 59 54 30 34 37 35 81 53 64 95 84 125 73 67 65 69 -16 45 82
-4 11 30 6 -7 -4 14 19 18 26 1 24 54 62 45 74 52 64 55 48 30 59 83 66 37 40 42 40 31 -4 -16 84 83 68 71 127 90 95 102 140 51 46 53 -1 10
11 -17 -0 23 11 8 7 17 15 -33 12 15 46 64 35 46 36 47 28 23 24 10 11 -3 11 28 18 -19 12 7 8 28 34 49 89 198 115 105 60 84 106 49 52 16 -16
-11 -5 1 5 19 22 19 28 24 44 23 7 9 4 -5 25 -0 13 2 -10 -11 2 -15 -15 -0 -0 8 22 29 26 37 46 42 72 127 172 91 103 80 50 49 55 44 27 32
23 14 5 7 14 27 34 14 30 29 16 22 15 -5 2 -3 -3 -13 -15 -19 -14 1 9 10 7 22 46 51 47 58 61 71 80 89 77 49 86 73 57 41 26 19 28 23 22
50 55 40 34 29 28 16 25 22 13 8 3 4 -7 -6 -24 -28 -30 -22 -21 -20 -23 -25 -1 14 28 51 54 78 65 99 4 16 36 76 83 49 74 35 23 4 -3 -0 2 8
51 58 57 37 43 19 31 32 23 10 7 8 10 1 -3 -12 -16 -11 -9 -21 -16 -21 -25 -19 -6 -23 -12 -3 8 11 -3 20 29 46 100 147 80 81 79 37 14 -2 -32 -22 4
62 62 49 50 37 32 34 29 29 35 24 15 3 -1 4 -4 -7 -11 -12 -11 -3 -9 -36 -31 -37 -22 -29 27 26 47 12 54 67 77 116 131 58 67 40 15 31 -11 -12 24 24
48 60 76 46 52 43 35 29 26 39 37 36 31 17 7 3 2 -4 -12 -11 19 3 -30 -4 -45 -18 -26 1 42 30 80 105 145 167 210 169 38 85 23 26 78 65 80 56 35
42 33 35 28 32 39 48 43 43 28 32 27 35 40 45 39 42 4 -0 31 42 40 56 44 25 32 45 19 90 109 140 171 208 184 154 359 225 199 126 170 175 132 58 37 25
-2 19 11 13 19 29 34 51 50 50 40 41 34 31 41 39 39 40 43 53 67 82 83 52 -1 48 28 49 75 121 107 185 273 296 181 162 112 161 188 128 106 64 36 13 2
15 29 27 30 24 29 28 44 40 41 56 49 48 57 63 49 50 61 69 61 51 81 75 83 58 26 19 38 60 70 96 117 97 130 138 135 50 79 86 69 48 32 37 29 -36
18 14 10 37 41 37 50 59 50 43 54 41 55 70 80 62 41 38 67 107 126 112 89 96 69 42 45 42 27 40 40 -4 80 113 84 87 123 87 155 36 -4 5 21 14 -3
Wind_Speed
39 38 30 24 15 17 16 20 22 21 19 20 19 19 17 14 11 19 21 36 38 39 34 30 26 25 25 27 31 34 37 39 39 37 41 34 36 35 38 39 36 35 38 35 34
38 36 32 23 17 14 14 17 20 22 22 22 21 20 20 21 11 13 30 36 35 34 28 28 27 26 29 32 35 37 42 41 38 39 43 39 41 42 44 42 42 38 34 36 36
29 35 26 22 18 11 12 14 19 21 23 24 22 23 26 29 28 30 37 37 34 30 24 25 26 28 32 34 38 40 44 37 40 41 43 45 46 45 48 51 45 45 37 37 43
39 35 26 17 13 12 11 13 19 22 24 24 21 17 22 30 37 33 39 37 33 28 26 27 30 33 35 37 38 42 38 40 41 43 46 49 53 52 48 51 42 41 40 42 44
53 28 20 12 9 8 10 14 18 19 22 24 23 24 24 20 25 35 37 33 27 25 26 28 31 32 36 36 38 41 40 41 44 47 50 53 55 57 54 45 43 45 44 44 44
41 23 17 10 5 4 4 6 10 11 16 19 20 18 19 20 29 32 32 26 23 22 24 28 29 26 31 38 43 41 42 46 49 52 53 60 57 55 49 43 43 42 42 41 43
38 34 22 14 10 1 6 7 8 8 8 6 8 5 5 19 25 28 26 23 25 23 23 28 28 34 34 39 39 42 51 49 51 54 54 60 64 55 52 50 53 47 45 47 48
37 20 12 11 2 3 4 2 3 8 10 11 13 14 16 23 25 25 26 22 25 25 24 27 27 29 38 33 42 48 49 59 49 54 50 56 72 56 53 54 58 55 53 53 54
44 32 18 8 2 2 4 3 6 5 10 19 19 17 17 26 22 28 27 27 28 26 28 29 30 33 36 42 47 48 60 62 63 51 59 58 77 62 56 61 68 67 65 65 65
46 37 25 14 17 13 8 4 8 12 17 16 17 18 21 23 28 30 29 29 28 29 31 34 35 37 42 47 60 59 63 63 68 62 70 80 88 82 78 82 87 84 80 77 72
41 34 28 26 22 16 19 16 16 12 11 13 20 16 21 27 25 29 30 29 29 29 35 36 37 42 41 44 45 49 59 68 68 65 78 77 96 95 90 87 89 88 87 83 78
33 34 33 22 18 26 17 10 13 12 4 13 14 15 20 27 26 31 32 29 31 32 35 36 39 36 38 42 47 53 64 69 65 60 78 88 112 108 87 80 80 85 84 82 77
27 29 35 36 34 21 4 6 22 18 13 17 19 21 25 27 26 34 33 30 30 32 36 37 33 34 38 44 51 53 59 64 69 77 64 85 84 67 69 68 76 77 78 77 71
35 21 30 37 38 37 33 29 29 24 18 27 28 27 30 27 27 33 34 32 33 32 33 35 33 37 41 46 50 55 49 56 65 70 66 64 70 73 70 73 71 72 69 64 51
33 33 27 32 43 33 32 28 30 29 22 29 26 30 28 25 30 33 34 31 31 32 36 37 36 39 42 41 42 46 46 48 47 52 56 45 42 37 52 61 65 77 60 43 34
28 27 30 30 33 32 28 29 32 27 19 19 24 25 23 26 27 33 31 30 28 32 34 32 31 33 33 34 36 41 25 37 34 34 33 36 50 40 55 52 41 36 48 29 24
30 26 32 31 34 26 30 35 42 47 42 42 32 23 19 23 24 28 28 30 30 32 33 34 30 29 30 36 38 44 50 37 37 42 39 40 43 27 27 34 34 27 15 23 39
35 31 29 31 26 28 34 40 50 47 46 45 42 39 40 29 30 26 28 25 23 26 26 28 32 33 34 37 39 43 37 37 11 12 25 40 39 42 38 25 21 18 24 23 32
34 32 31 21 24 29 38 42 46 47 45 46 40 42 39 34 31 29 29 32 30 28 30 31 32 31 34 32 34 32 27 35 13 17 8 21 23 18 42 51 46 34 19 20 23
36 37 35 20 29 34 40 44 42 41 41 38 38 36 36 32 32 30 30 32 31 29 26 22 28 26 28 27 31 18 26 14 12 8 6 5 8 13 20 41 27 24 18 11 15
37 39 31 27 34 38 43 42 42 39 37 34 35 33 32 30 29 29 30 29 30 29 26 25 28 27 22 24 22 20 19 18 15 13 8 5 5 18 15 9 17 22 3 14 20
41 41 28 31 36 40 40 42 40 39 34 33 32 31 30 29 28 29 30 30 29 27 25 25 28 28 27 18 19 18 19 18 15 12 12 6 4 22 18 16 12 9 51 49 46
43 43 36 37 43 46 43 42 38 35 32 32 31 29 28 26 26 28 28 25 25 25 24 20 30 26 24 19 19 18 14 13 14 12 11 8 7 24 23 18 14 13 17 27 39
45 46 44 49 46 46 42 40 39 35 34 33 31 30 29 25 22 18 18 23 21 20 24 23 11 26 22 20 33 6 7 7 9 7 7 16 29 29 32 27 24 23 13 15 20
45 47 45 49 51 47 41 39 38 34 31 29 33 27 33 34 36 30 28 32 32 28 30 34 49 21 42 38 34 39 33 15 20 19 8 8 15 34 29 26 27 22 21 18 28
42 41 41 44 42 42 42 40 38 37 33 32 28 32 24 32 34 40 37 36 39 30 28 35 45 57 68 56 36 19 13 17 24 28 37 47 49 38 15 31 35 20 32 32 43
40 38 37 39 41 42 41 40 39 38 33 33 34 37 33 21 28 37 34 43 41 36 30 38 46 56 48 51 74 56 27 19 26 23 12 16 17 27 64 68 81 80 37 79 78
Wind_Direction
207 204 201 192 185 194 206 215 215 213 215 220 223 229 238 254 272 268 275 275 271 273 270 268 279 282 287 287 293 291 288 289 293 297 302 311 309 318 319 317 323 327 325 332 336
193 190 192 171 169 195 206 212 208 210 218 224 229 232 238 250 276 281 283 287 281 277 274 267 272 282 284 287 292 289 288 292 303 305 306 310 309 311 312 312 312 317 323 328 329
175 180 174 165 182 192 204 203 206 216 222 229 237 242 251 254 249 265 290 288 281 278 286 284 284 286 286 292 293 294 291 301 304 308 310 309 309 311 309 306 308 310 314 317 318
169 176 162 168 182 194 200 204 218 224 228 234 240 257 263 254 242 270 286 286 282 282 283 283 284 283 284 288 297 295 303 305 308 311 310 308 309 307 306 307 317 316 317 316 315
158 160 163 152 151 187 218 225 227 230 231 233 243 258 259 249 255 280 285 290 291 291 288 285 286 287 287 295 300 301 304 309 311 311 310 309 306 305 306 309 311 311 311 310 312
148 137 114 116 124 173 198 226 227 234 234 237 250 259 252 243 280 289 290 298 307 301 300 298 295 304 301 299 300 307 308 309 311 311 311 308 307 310 313 316 312 309 310 311 310
142 146 142 75 73 137 228 239 232 223 223 229 252 274 309 267 292 301 304 308 313 309 303 307 307 302 303 303 310 310 304 309 313 313 311 313 304 303 307 309 306 304 304 304 304
137 130 90 57 68 312 221 273 228 224 241 263 270 276 262 286 292 310 307 315 325 325 321 321 327 323 309 314 312 307 308 302 313 317 317 316 302 312 314 309 306 304 302 299 298
139 145 155 174 337 78 16 280 241 274 277 260 262 261 261 283 296 301 310 299 305 320 326 326 321 314 315 307 306 310 301 304 308 318 315 312 304 310 312 307 302 300 298 295 293
136 145 159 176 184 188 227 296 9 266 273 277 279 268 280 281 289 296 302 309 308 306 311 312 313 309 311 308 299 304 305 308 308 314 311 306 301 304 304 301 297 295 292 289 287
135 144 155 168 192 226 237 250 241 256 335 276 263 276 272 281 305 307 304 303 308 310 298 310 307 306 313 316 316 315 312 310 313 317 313 311 306 306 306 302 298 294 291 288 285
138 145 148 160 189 199 228 265 265 247 312 319 303 296 300 290 287 311 310 300 302 299 306 308 306 316 320 321 320 319 314 313 319 323 319 315 307 309 312 309 305 299 295 291 286
141 146 151 152 152 147 107 218 215 257 273 296 305 296 293 302 299 299 309 303 307 307 308 307 316 323 324 325 323 323 321 322 320 322 326 324 321 331 330 326 317 307 300 294 288
130 143 155 156 151 154 162 186 200 237 276 285 290 303 300 302 302 318 318 307 307 309 314 318 321 324 326 325 328 325 332 331 328 330 330 344 329 340 351 349 339 328 311 299 286
131 132 134 150 140 158 173 198 205 217 274 291 300 298 312 309 301 314 330 323 313 314 313 313 320 325 328 334 341 336 343 343 345 341 341 2 4 9 4 6 2 340 331 314 300
133 142 146 146 142 153 183 205 198 199 291 310 288 302 305 320 318 311 324 335 331 322 327 325 335 339 345 353 353 296 267 5 16 19 22 22 10 14 15 14 13 18 9 347 317
134 136 133 142 134 164 163 151 133 133 160 165 191 239 311 321 333 331 334 338 330 324 320 328 334 344 307 263 339 332 342 18 17 12 17 17 14 20 11 22 28 39 74 154 205
124 133 133 135 151 153 147 137 118 133 141 154 157 160 159 181 183 194 188 189 234 234 241 275 245 259 286 322 344 352 16 21 75 55 20 16 24 26 31 30 36 77 86 136 170
127 124 124 148 155 146 136 127 129 133 143 147 156 151 159 177 179 185 189 175 196 218 201 206 190 334 346 4 7 18 38 18 86 62 62 50 33 41 38 37 49 66 98 127 150
116 113 106 136 135 134 124 123 131 141 144 150 150 158 157 162 163 164 166 170 162 181 188 148 205 23 19 31 18 76 52 170 139 135 90 86 52 60 49 28 59 72 90 137 189
112 107 106 124 122 115 113 122 130 139 144 147 152 159 163 172 172 177 174 165 169 162 165 157 182 182 161 164 159 143 170 134 126 146 131 60 42 65 65 75 64 64 141 253 247
101 99 104 114 109 103 111 112 119 126 136 142 145 154 161 158 185 188 191 174 150 152 188 176 201 208 205 126 147 127 156 133 167 142 157 156 175 69 66 66 79 298 284 277 270
91 92 95 100 95 91 94 89 92 103 116 120 123 136 147 172 196 184 182 136 126 135 159 123 211 221 192 133 99 161 113 116 102 125 177 127 162 60 54 24 345 332 302 277 273
75 67 76 74 82 81 86 84 78 80 57 46 42 42 49 63 72 152 153 39 58 55 31 40 174 188 190 209 2 136 80 126 141 144 174 220 255 263 275 278 286 296 335 320 286
54 51 59 47 49 59 66 66 65 70 70 69 29 27 5 357 348 359 3 351 349 351 349 343 274 326 236 237 235 240 234 222 214 215 226 355 248 266 266 270 278 288 299 324 290
33 41 46 42 45 44 42 43 42 40 45 38 42 25 32 0 349 337 336 337 331 341 343 336 325 318 303 312 337 333 292 241 231 237 237 245 255 260 282 3 0 335 353 354 284
25 31 33 28 29 27 27 29 27 28 32 26 18 5 2 6 353 339 335 324 320 325 328 324 322 319 325 328 308 323 350 343 335 334 283 278 310 335 327 333 325 297 340 323 320